QPF
0.00 0.00 0.00 0.00 0.00 0.00 0.00 0.00 0.00 0.00 0.00 0.00 0.00 0.00 0.00 0.00 0.00 0.00 0.00 0.00 0.00 0.00 0.00 0.00 0.00 0.00 0.00 0.00 0.00 0.00 0.00 0.00 0.00 0.00 0.00 0.00 0.00 0.00 0.00 0.00 0.00 0.00 0.00 0.00 0.00
0.00 0.00 0.00 0.00 0.00 0.00 0.00 0.00 0.00 0.00 0.00 0.00 0.00 0.00 0.00 0.00 0.00 0.00 0.00 0.00 0.00 0.00 0.00 0.00 0.00 0.00 0.00 0.00 0.00 0.00 0.00 0.00 0.00 0.00 0.00 0.00 0.00 0.00 0.00 0.00 0.00 0.00 0.00 0.00 0.00
0.00 0.00 0.00 0.00 0.00 0.00 0.00 0.00 0.00 0.00 0.00 0.00 0.00 0.00 0.00 0.00 0.00 0.00 0.00 0.00 0.00 0.00 0.00 0.00 0.00 0.00 0.00 0.00 0.00 0.00 0.00 0.00 0.00 0.00 0.00 0.00 0.00 0.00 0.00 0.00 0.00 0.00 0.00 0.00 0.00
0.00 0.00 0.00 0.00 0.00 0.00 0.00 0.00 0.00 0.00 0.00 0.00 0.00 0.00 0.00 0.00 0.00 0.00 0.00 0.00 0.00 0.00 0.00 0.00 0.00 0.00 0.00 0.00 0.00 0.00 0.00 0.00 0.00 0.00 0.00 0.00 0.00 0.00 0.00 0.00 0.00 0.00 0.00 0.00 0.00
0.00 0.00 0.00 0.00 0.00 0.00 0.00 0.00 0.00 0.00 0.00 0.00 0.00 0.00 0.00 0.00 0.00 0.00 0.00 0.00 0.00 0.00 0.00 0.00 0.00 0.00 0.00 0.00 0.00 0.00 0.00 0.00 0.00 0.00 0.00 0.00 0.00 0.00 0.00 0.00 0.00 0.00 0.00 0.00 0.00
0.00 0.00 0.00 0.00 0.00 0.00 0.00 0.00 0.00 0.00 0.00 0.00 0.00 0.00 0.00 0.00 0.00 0.00 0.00 0.00 0.00 0.00 0.00 0.00 0.00 0.00 0.00 0.00 0.00 0.00 0.00 0.00 0.00 0.00 0.00 0.00 0.00 0.00 0.00 0.00 0.00 0.00 0.00 0.00 0.00
0.00 0.00 0.00 0.00 0.00 0.00 0.00 0.00 0.00 0.00 0.00 0.00 0.00 0.00 0.00 0.00 0.00 0.00 0.00 0.00 0.00 0.00 0.00 0.00 0.00 0.00 0.00 0.00 0.00 0.00 0.00 0.00 0.00 0.00 0.00 0.00 0.00 0.00 0.00 0.00 0.00 0.00 0.00 0.00 0.00
0.00 0.00 0.00 0.00 0.00 0.00 0.00 0.00 0.00 0.00 0.00 0.00 0.00 0.00 0.00 0.00 0.00 0.00 0.00 0.00 0.00 0.00 0.00 0.00 0.00 0.00 0.00 0.00 0.00 0.00 0.00 0.00 0.00 0.00 0.00 0.00 0.00 0.00 0.00 0.00 0.00 0.00 0.00 0.00 0.00
0.00 0.00 0.00 0.00 0.00 0.00 0.00 0.00 0.00 0.00 0.00 0.00 0.00 0.00 0.00 0.00 0.00 0.00 0.00 0.00 0.00 0.00 0.00 0.00 0.00 0.00 0.00 0.00 0.00 0.00 0.00 0.00 0.00 0.00 0.00 0.00 0.00 0.00 0.00 0.00 0.00 0.00 0.00 0.00 0.00
0.00 0.00 0.00 0.00 0.00 0.00 0.00 0.00 0.00 0.00 0.00 0.00 0.00 0.00 0.00 0.00 0.00 0.00 0.00 0.00 0.00 0.00 0.00 0.00 0.00 0.00 0.00 0.00 0.00 0.00 0.00 0.00 0.00 0.00 0.00 0.00 0.00 0.00 0.00 0.00 0.00 0.00 0.00 0.00 0.00
0.00 0.00 0.00 0.00 0.00 0.00 0.00 0.00 0.00 0.00 0.00 0.00 0.00 0.00 0.00 0.00 0.00 0.00 0.00 0.00 0.00 0.00 0.00 0.00 0.00 0.00 0.00 0.00 0.00 0.00 0.00 0.00 0.00 0.00 0.00 0.00 0.00 0.00 0.00 0.00 0.00 0.00 0.00 0.00 0.00
0.00 0.00 0.00 0.00 0.00 0.00 0.00 0.00 0.00 0.00 0.00 0.00 0.00 0.00 0.00 0.00 0.00 0.00 0.00 0.00 0.00 0.00 0.00 0.00 0.00 0.00 0.00 0.00 0.00 0.00 0.00 0.00 0.00 0.00 0.00 0.00 0.00 0.00 0.00 0.00 0.00 0.00 0.00 0.00 0.00
0.00 0.00 0.00 0.00 0.00 0.00 0.00 0.00 0.00 0.00 0.00 0.00 0.00 0.00 0.00 0.00 0.00 0.00 0.00 0.00 0.00 0.00 0.00 0.00 0.00 0.00 0.00 0.00 0.00 0.00 0.00 0.00 0.00 0.00 0.00 0.00 0.00 0.00 0.00 0.00 0.00 0.00 0.00 0.00 0.00
0.00 0.00 0.00 0.00 0.00 0.00 0.00 0.00 0.00 0.00 0.00 0.00 0.00 0.00 0.00 0.00 0.00 0.00 0.00 0.00 0.00 0.00 0.00 0.00 0.00 0.00 0.00 0.00 0.00 0.00 0.00 0.00 0.00 0.00 0.00 0.00 0.00 0.00 0.00 0.00 0.00 0.00 0.00 0.00 0.00
0.00 0.00 0.00 0.00 0.00 0.00 0.00 0.00 0.00 0.00 0.00 0.00 0.00 0.00 0.00 0.00 0.00 0.00 0.00 0.00 0.00 0.00 0.00 0.00 0.00 0.00 0.00 0.00 0.00 0.00 0.00 0.00 0.00 0.00 0.00 0.00 0.00 0.00 0.00 0.00 0.00 0.00 0.00 0.00 0.00
0.00 0.00 0.00 0.00 0.00 0.00 0.00 0.00 0.00 0.00 0.00 0.00 0.00 0.00 0.00 0.00 0.00 0.00 0.00 0.00 0.00 0.00 0.00 0.00 0.00 0.00 0.00 0.00 0.00 0.00 0.00 0.00 0.00 0.00 0.00 0.00 0.00 0.00 0.00 0.00 0.00 0.00 0.00 0.00 0.00
0.00 0.00 0.00 0.00 0.00 0.00 0.00 0.00 0.00 0.00 0.00 0.00 0.00 0.00 0.00 0.00 0.00 0.00 0.00 0.00 0.00 0.00 0.00 0.00 0.00 0.00 0.00 0.00 0.00 0.00 0.00 0.00 0.00 0.00 0.00 0.00 0.00 0.00 0.00 0.00 0.00 0.00 0.00 0.00 0.00
0.00 0.00 0.00 0.00 0.00 0.00 0.00 0.00 0.00 0.00 0.00 0.00 0.00 0.00 0.00 0.00 0.00 0.00 0.00 0.00 0.00 0.00 0.00 0.00 0.00 0.00 0.00 0.00 0.00 0.00 0.00 0.00 0.00 0.00 0.00 0.00 0.00 0.00 0.00 0.00 0.00 0.00 0.00 0.00 0.00
0.00 0.00 0.00 0.00 0.00 0.00 0.00 0.00 0.00 0.00 0.00 0.00 0.00 0.00 0.00 0.00 0.00 0.00 0.00 0.00 0.00 0.00 0.00 0.00 0.00 0.00 0.00 0.00 0.00 0.00 0.00 0.00 0.00 0.00 0.00 0.00 0.00 0.00 0.00 0.00 0.00 0.00 0.00 0.00 0.00
0.00 0.00 0.00 0.00 0.00 0.00 0.00 0.00 0.00 0.00 0.00 0.00 0.00 0.00 0.00 0.00 0.00 0.00 0.00 0.00 0.00 0.00 0.00 0.00 0.00 0.00 0.00 0.00 0.00 0.00 0.00 0.00 0.00 0.00 0.00 0.00 0.00 0.00 0.00 0.00 0.00 0.00 0.00 0.00 0.00
0.00 0.00 0.00 0.00 0.00 0.00 0.00 0.00 0.00 0.00 0.00 0.00 0.00 0.00 0.00 0.00 0.00 0.00 0.00 0.00 0.00 0.00 0.00 0.00 0.00 0.00 0.00 0.00 0.00 0.00 0.00 0.00 0.00 0.00 0.00 0.00 0.00 0.00 0.00 0.00 0.00 0.00 0.00 0.00 0.00
0.00 0.00 0.00 0.00 0.00 0.00 0.00 0.00 0.00 0.00 0.00 0.00 0.00 0.00 0.00 0.00 0.00 0.00 0.00 0.00 0.00 0.00 0.00 0.00 0.00 0.00 0.00 0.00 0.00 0.00 0.00 0.00 0.00 0.00 0.00 0.00 0.00 0.00 0.00 0.00 0.00 0.00 0.00 0.00 0.00
0.00 0.00 0.00 0.00 0.00 0.00 0.00 0.00 0.00 0.00 0.00 0.00 0.00 0.00 0.00 0.00 0.00 0.00 0.00 0.00 0.00 0.00 0.00 0.00 0.00 0.00 0.00 0.00 0.00 0.00 0.00 0.00 0.00 0.00 0.00 0.00 0.00 0.00 0.00 0.00 0.00 0.00 0.00 0.00 0.00
0.00 0.00 0.00 0.00 0.00 0.00 0.00 0.00 0.00 0.00 0.00 0.00 0.00 0.00 0.00 0.00 0.00 0.00 0.00 0.00 0.00 0.00 0.00 0.00 0.00 0.00 0.00 0.00 0.00 0.00 0.00 0.00 0.00 0.00 0.00 0.00 0.00 0.00 0.00 0.00 0.00 0.00 0.00 0.00 0.00
0.00 0.00 0.00 0.00 0.00 0.00 0.00 0.00 0.00 0.00 0.00 0.00 0.00 0.00 0.00 0.00 0.00 0.00 0.00 0.00 0.00 0.00 0.00 0.00 0.00 0.00 0.00 0.00 0.00 0.00 0.00 0.00 0.00 0.00 0.00 0.00 0.00 0.00 0.00 0.00 0.00 0.00 0.00 0.00 0.00
0.00 0.00 0.00 0.00 0.00 0.00 0.00 0.00 0.00 0.00 0.00 0.00 0.00 0.00 0.00 0.00 0.00 0.00 0.00 0.00 0.00 0.00 0.00 0.00 0.00 0.00 0.00 0.00 0.00 0.00 0.00 0.00 0.00 0.00 0.00 0.00 0.00 0.00 0.00 0.00 0.00 0.00 0.00 0.00 0.00
0.00 0.00 0.00 0.00 0.00 0.00 0.00 0.00 0.00 0.00 0.00 0.00 0.00 0.00 0.00 0.00 0.00 0.00 0.00 0.00 0.00 0.00 0.00 0.00 0.00 0.00 0.00 0.00 0.00 0.00 0.00 0.00 0.00 0.00 0.00 0.00 0.00 0.00 0.00 0.00 0.00 0.00 0.00 0.00 0.00
MSLP
1019.58 1019.21 1018.80 1018.52 1018.22 1017.86 1017.55 1017.28 1017.01 1016.70 1016.51 1016.29 1016.05 1015.77 1015.49 1015.28 1014.69 1014.16 1011.83 1011.50 1011.28 1011.74 1011.66 1010.96 1010.58 1010.24 1009.84 1009.11 1008.99 1008.52 1006.58 1004.95 1004.74 1004.97 1005.12 1005.41 1005.27 1006.05 1006.47 1006.48 1007.12 1007.36 1007.76 1008.51 1010.14
1019.49 1019.07 1018.64 1018.32 1017.96 1017.74 1017.41 1017.14 1016.77 1016.51 1016.32 1016.06 1015.84 1015.59 1015.43 1015.18 1013.65 1011.85 1011.47 1011.50 1011.70 1011.63 1010.79 1010.17 1009.73 1009.58 1008.84 1008.59 1008.53 1007.62 1006.23 1005.36 1005.90 1005.69 1005.26 1005.22 1005.38 1005.52 1005.92 1005.79 1006.51 1007.34 1008.40 1009.11 1010.26
1019.36 1018.94 1018.49 1018.17 1017.89 1017.52 1017.12 1016.74 1016.45 1016.27 1016.09 1015.90 1015.67 1015.53 1015.38 1014.94 1012.65 1010.68 1011.42 1011.63 1011.74 1011.63 1010.32 1009.90 1009.48 1008.97 1008.23 1008.07 1007.97 1007.42 1006.12 1006.20 1006.11 1006.06 1005.86 1005.59 1005.19 1005.36 1005.48 1004.86 1005.07 1006.05 1007.53 1009.24 1009.95
1019.35 1018.79 1018.38 1018.09 1017.76 1017.12 1016.83 1016.53 1016.30 1016.17 1015.95 1015.77 1015.47 1015.42 1015.24 1014.09 1011.03 1010.60 1011.49 1011.76 1011.78 1010.96 1010.22 1009.67 1009.20 1008.45 1007.70 1007.55 1007.62 1007.13 1006.87 1006.56 1006.12 1006.11 1006.04 1005.39 1005.32 1004.99 1004.89 1005.03 1005.72 1005.92 1006.57 1008.45 1009.30
1019.25 1018.83 1018.44 1018.02 1017.33 1016.95 1016.61 1016.38 1016.22 1016.03 1015.78 1015.52 1015.24 1015.29 1014.97 1012.23 1010.34 1010.91 1011.52 1011.78 1011.35 1010.70 1009.67 1009.02 1008.45 1007.92 1007.32 1007.31 1007.62 1007.18 1006.58 1006.63 1006.45 1006.11 1005.95 1005.70 1005.31 1004.96 1004.51 1004.62 1005.46 1006.28 1006.75 1007.86 1008.65
1019.10 1018.57 1018.09 1017.58 1017.22 1016.69 1016.34 1016.18 1016.07 1015.80 1015.50 1015.23 1015.13 1015.14 1013.64 1010.55 1010.36 1010.72 1010.78 1011.06 1010.35 1010.02 1009.43 1009.04 1008.27 1008.08 1007.54 1007.35 1007.19 1007.01 1006.78 1006.39 1006.11 1005.83 1005.87 1005.71 1005.05 1005.49 1004.67 1005.09 1005.32 1006.37 1006.74 1007.59 1008.50
1018.99 1018.36 1018.13 1017.58 1016.95 1016.44 1016.06 1015.98 1015.85 1015.50 1015.21 1014.91 1014.97 1014.26 1012.09 1010.55 1010.21 1010.58 1010.78 1010.27 1010.20 1009.80 1009.26 1009.07 1008.76 1008.24 1007.85 1007.35 1007.44 1007.03 1006.63 1005.72 1005.71 1005.76 1005.69 1005.98 1005.21 1004.90 1005.30 1005.50 1005.36 1006.25 1006.86 1007.67 1008.52
1018.81 1018.35 1017.80 1017.11 1016.80 1016.42 1015.88 1015.73 1015.35 1015.14 1014.84 1014.72 1014.74 1013.63 1010.60 1010.39 1010.31 1010.60 1010.39 1010.24 1010.25 1009.99 1009.54 1009.29 1009.03 1008.29 1007.82 1007.65 1007.15 1006.42 1005.88 1004.72 1005.74 1005.67 1006.18 1006.09 1004.08 1004.70 1005.58 1005.64 1005.40 1005.99 1007.26 1008.04 1008.44
1018.80 1018.19 1017.61 1017.28 1016.77 1016.10 1015.68 1015.38 1014.85 1014.72 1014.58 1014.54 1013.98 1012.63 1010.10 1011.20 1010.31 1009.79 1009.87 1009.23 1009.56 1009.58 1009.48 1009.53 1008.87 1008.01 1007.89 1006.85 1005.92 1005.53 1004.38 1004.63 1005.59 1006.02 1005.79 1005.79 1004.41 1005.22 1006.04 1005.85 1005.86 1006.47 1007.46 1008.21 1008.75
1018.68 1018.11 1017.52 1016.97 1016.21 1015.79 1015.49 1015.24 1014.79 1014.54 1014.20 1013.89 1013.10 1011.94 1010.14 1009.32 1009.22 1009.48 1009.58 1009.30 1008.80 1008.94 1008.93 1008.71 1007.96 1006.94 1006.50 1005.70 1004.36 1004.85 1004.76 1005.15 1005.19 1006.10 1005.88 1005.81 1005.88 1006.14 1006.52 1006.36 1006.46 1006.73 1007.35 1007.86 1008.39
1018.43 1017.86 1017.20 1016.45 1015.82 1015.56 1015.06 1014.35 1013.91 1013.05 1012.19 1010.94 1010.36 1009.65 1008.85 1008.84 1009.21 1008.83 1008.97 1008.77 1008.35 1008.08 1007.22 1007.52 1006.36 1005.59 1005.79 1005.94 1005.88 1005.72 1005.41 1005.24 1005.98 1006.57 1006.21 1006.27 1006.34 1006.41 1006.42 1006.37 1006.65 1006.85 1007.06 1007.24 1007.84
1018.03 1017.69 1016.93 1016.19 1015.74 1015.22 1014.43 1012.10 1011.94 1011.80 1010.51 1009.96 1009.68 1009.27 1009.03 1008.66 1008.26 1008.42 1008.65 1008.00 1007.75 1006.85 1007.22 1006.79 1006.00 1006.45 1006.67 1006.46 1006.19 1005.87 1005.38 1005.51 1006.48 1006.93 1006.22 1006.45 1006.74 1007.15 1007.16 1007.31 1007.23 1007.29 1007.40 1007.34 1007.38
1018.02 1017.57 1016.74 1015.86 1015.28 1014.84 1013.06 1011.94 1011.64 1011.50 1009.90 1009.08 1008.72 1008.28 1008.09 1008.23 1007.54 1007.90 1008.12 1007.65 1007.15 1006.85 1006.50 1005.59 1006.22 1006.74 1006.48 1006.27 1005.92 1005.75 1005.24 1005.69 1005.72 1006.66 1006.88 1006.53 1006.33 1006.84 1007.27 1007.39 1007.49 1007.70 1008.00 1008.04 1007.98
1017.91 1017.45 1016.67 1015.66 1015.40 1013.10 1011.94 1011.84 1011.43 1011.27 1008.84 1008.56 1007.91 1007.50 1007.96 1007.60 1007.63 1007.95 1007.75 1007.45 1007.16 1006.56 1006.55 1006.14 1006.52 1006.26 1005.98 1005.83 1005.70 1005.33 1006.06 1006.16 1006.09 1006.13 1005.40 1006.63 1005.37 1006.21 1006.98 1007.02 1007.49 1007.88 1008.30 1008.54 1008.78
1017.98 1017.15 1016.54 1016.38 1014.45 1012.27 1011.78 1011.47 1011.30 1011.05 1007.87 1007.71 1007.26 1007.51 1007.41 1007.13 1007.31 1007.87 1007.99 1007.48 1006.84 1006.69 1006.72 1006.47 1006.17 1005.79 1005.56 1006.08 1006.35 1006.07 1006.43 1006.31 1006.25 1005.88 1006.08 1005.87 1005.34 1006.29 1006.78 1006.99 1007.58 1008.19 1008.62 1009.21 1009.68
1017.53 1016.95 1016.51 1015.28 1014.01 1012.11 1011.90 1011.57 1011.18 1009.43 1007.32 1007.05 1006.91 1006.89 1006.86 1006.79 1006.97 1007.50 1007.63 1007.78 1007.55 1006.98 1006.71 1006.50 1006.91 1006.44 1006.39 1006.59 1006.70 1006.79 1006.55 1006.35 1006.16 1005.72 1005.16 1006.20 1005.92 1005.31 1005.81 1007.50 1007.83 1008.41 1008.95 1009.72 1010.24
1016.98 1016.40 1016.27 1014.40 1012.17 1012.20 1011.70 1010.61 1009.33 1007.59 1007.56 1006.86 1006.32 1006.42 1006.04 1006.27 1006.54 1006.88 1007.23 1007.28 1006.63 1006.72 1006.47 1006.67 1006.51 1006.74 1006.81 1006.28 1006.61 1006.68 1006.22 1005.07 1004.97 1004.77 1005.13 1006.72 1006.38 1006.12 1006.83 1007.69 1008.17 1008.65 1009.12 1009.91 1010.75
1016.28 1015.46 1014.71 1013.19 1012.56 1012.47 1011.30 1009.82 1008.37 1007.36 1006.61 1006.83 1006.20 1006.07 1005.91 1006.05 1006.09 1006.58 1006.72 1006.64 1007.24 1006.88 1006.37 1006.05 1006.61 1006.87 1007.20 1006.91 1006.55 1006.53 1006.65 1005.67 1005.53 1005.33 1005.36 1006.69 1005.91 1006.28 1007.16 1007.87 1008.24 1008.87 1009.53 1010.28 1010.82
1015.55 1013.60 1012.95 1012.22 1012.39 1012.36 1010.75 1008.95 1007.32 1007.12 1007.04 1006.66 1006.43 1005.85 1005.88 1006.14 1006.19 1006.52 1006.55 1006.34 1006.77 1007.20 1006.70 1006.56 1006.76 1007.67 1007.80 1007.62 1007.68 1006.78 1006.67 1007.32 1006.93 1006.91 1006.37 1005.78 1006.59 1006.94 1007.23 1007.46 1007.97 1008.40 1009.32 1010.02 1010.82
1015.43 1013.28 1011.92 1012.26 1012.35 1011.55 1010.06 1008.73 1008.19 1008.09 1007.75 1007.30 1005.99 1005.88 1005.42 1005.72 1006.21 1006.40 1006.63 1007.40 1007.51 1007.77 1007.76 1007.15 1007.17 1007.73 1008.15 1008.26 1008.12 1007.71 1008.14 1007.66 1007.06 1006.68 1006.18 1005.79 1006.28 1005.46 1006.68 1006.93 1007.31 1007.94 1008.73 1009.86 1010.52
1015.20 1012.55 1012.05 1012.05 1011.99 1010.63 1009.25 1008.59 1008.56 1008.30 1008.27 1007.55 1006.79 1006.34 1005.69 1005.96 1006.05 1006.23 1006.68 1008.15 1008.29 1008.28 1008.19 1007.90 1008.09 1008.11 1008.50 1007.93 1007.78 1007.89 1007.73 1008.41 1008.57 1008.16 1007.10 1006.25 1005.42 1005.95 1006.51 1006.85 1007.01 1007.52 1008.44 1009.45 1010.20
1014.63 1011.89 1011.88 1011.96 1010.78 1009.83 1009.07 1009.25 1009.74 1008.54 1008.29 1007.86 1007.57 1006.91 1006.44 1006.62 1006.45 1006.72 1007.32 1008.10 1009.30 1008.85 1008.57 1008.78 1008.52 1007.95 1007.93 1009.03 1009.29 1008.84 1008.32 1008.54 1008.45 1008.12 1007.89 1007.86 1006.67 1006.93 1007.32 1007.46 1007.80 1007.79 1008.45 1009.33 1010.46
1014.25 1012.33 1011.73 1011.54 1009.80 1009.37 1009.75 1009.37 1009.16 1008.75 1008.49 1008.11 1007.73 1007.60 1007.56 1007.26 1007.48 1007.70 1008.37 1009.64 1009.69 1009.43 1009.33 1009.53 1009.07 1008.56 1008.85 1009.30 1009.37 1008.91 1009.03 1009.32 1009.46 1009.46 1008.41 1007.54 1006.50 1007.23 1007.72 1007.94 1008.12 1008.43 1008.70 1009.31 1010.24
1014.83 1012.03 1011.35 1011.13 1010.69 1009.79 1009.53 1009.21 1009.11 1009.35 1009.11 1008.99 1008.34 1008.15 1007.95 1007.83 1008.01 1008.19 1008.79 1009.87 1010.24 1010.25 1010.65 1010.53 1009.72 1008.97 1008.17 1008.10 1008.50 1008.82 1009.14 1009.48 1009.49 1009.15 1008.04 1007.22 1007.07 1007.07 1007.54 1007.86 1007.94 1008.40 1008.68 1009.25 1010.20
1014.88 1012.76 1012.76 1010.87 1010.50 1010.28 1010.22 1009.91 1009.31 1009.26 1009.59 1009.48 1008.98 1008.57 1008.30 1008.30 1008.23 1008.36 1008.98 1009.96 1010.52 1010.94 1010.91 1010.68 1009.97 1009.68 1009.22 1009.50 1009.38 1009.10 1008.93 1008.91 1009.06 1008.97 1008.47 1007.70 1007.13 1006.91 1007.47 1007.75 1008.26 1008.86 1009.06 1009.13 1009.96
1014.86 1013.52 1013.35 1012.18 1011.69 1010.87 1010.74 1010.12 1009.83 1010.22 1010.22 1009.69 1009.44 1009.57 1009.47 1009.17 1008.92 1008.81 1009.19 1009.55 1009.74 1010.76 1010.83 1011.15 1010.44 1010.39 1009.80 1009.53 1009.72 1009.21 1008.92 1008.80 1008.61 1008.49 1008.28 1008.02 1007.64 1007.73 1007.94 1008.80 1008.87 1008.93 1009.22 1009.36 1010.10
1015.50 1014.94 1013.88 1012.66 1011.76 1011.07 1010.44 1010.42 1010.65 1011.11 1011.23 1011.07 1010.67 1010.40 1010.42 1011.13 1010.85 1010.78 1010.67 1010.73 1010.74 1010.75 1011.00 1011.28 1010.78 1010.88 1009.87 1009.62 1009.94 1009.12 1008.32 1008.28 1008.20 1008.06 1008.08 1007.81 1007.63 1007.93 1008.38 1008.74 1008.96 1009.31 1009.65 1009.79 1010.51
Thickness
5706 5712 5717 5721 5725 5729 5733 5737 5741 5744 5747 5750 5753 5756 5759 5762 5767 5774 5787 5792 5795 5791 5792 5794 5793 5793 5795 5790 5793 5794 5777 5780 5786 5786 5788 5809 5805 5813 5817 5808 5808 5812 5807 5807 5799
5703 5709 5714 5718 5722 5726 5731 5735 5739 5743 5745 5748 5751 5755 5758 5761 5775 5786 5792 5792 5791 5792 5794 5790 5786 5790 5786 5786 5786 5782 5776 5781 5791 5796 5795 5806 5804 5807 5804 5808 5802 5802 5805 5805 5796
5700 5706 5711 5716 5720 5725 5730 5734 5738 5741 5744 5747 5751 5754 5757 5761 5776 5789 5791 5789 5789 5790 5799 5798 5796 5792 5783 5789 5783 5782 5776 5787 5790 5797 5801 5797 5804 5813 5803 5803 5815 5807 5803 5795 5792
5697 5704 5709 5714 5718 5725 5729 5733 5736 5738 5742 5746 5751 5753 5756 5767 5769 5792 5788 5787 5787 5793 5795 5791 5789 5782 5781 5774 5785 5771 5784 5787 5793 5798 5795 5796 5808 5806 5811 5812 5820 5823 5820 5802 5792
5695 5701 5706 5712 5719 5723 5727 5731 5734 5737 5741 5746 5751 5752 5759 5774 5781 5790 5787 5785 5787 5791 5789 5789 5786 5787 5778 5781 5778 5772 5782 5785 5792 5796 5795 5800 5797 5802 5812 5826 5826 5818 5815 5803 5797
5693 5699 5706 5712 5717 5723 5727 5730 5733 5737 5742 5747 5750 5752 5765 5772 5791 5789 5789 5787 5792 5790 5788 5789 5789 5793 5784 5780 5776 5782 5781 5783 5790 5793 5793 5787 5797 5796 5810 5822 5819 5810 5809 5804 5796
5690 5698 5702 5710 5717 5723 5727 5729 5733 5739 5743 5747 5748 5756 5768 5772 5790 5787 5787 5790 5792 5790 5783 5791 5793 5786 5785 5775 5785 5781 5768 5785 5786 5789 5786 5790 5782 5788 5805 5810 5812 5806 5805 5799 5794
5688 5694 5701 5710 5715 5720 5726 5729 5735 5739 5744 5746 5748 5757 5771 5785 5787 5785 5788 5786 5789 5790 5788 5791 5792 5785 5781 5784 5778 5772 5777 5769 5779 5786 5782 5782 5783 5796 5802 5802 5804 5806 5795 5790 5791
5684 5692 5701 5706 5712 5720 5725 5730 5736 5740 5743 5745 5753 5758 5765 5778 5776 5788 5790 5784 5784 5786 5787 5786 5785 5777 5775 5767 5766 5774 5767 5769 5764 5782 5781 5779 5784 5790 5795 5797 5796 5795 5789 5784 5784
5682 5690 5698 5706 5714 5720 5724 5728 5735 5739 5744 5746 5753 5753 5769 5770 5782 5785 5789 5787 5780 5778 5774 5774 5775 5772 5773 5771 5759 5757 5762 5764 5762 5769 5777 5771 5768 5778 5782 5786 5785 5788 5785 5785 5783
5680 5689 5696 5707 5714 5719 5725 5736 5743 5744 5751 5758 5762 5764 5772 5783 5785 5780 5786 5781 5781 5775 5765 5772 5768 5765 5768 5770 5769 5763 5761 5759 5761 5768 5768 5763 5763 5771 5782 5785 5781 5782 5786 5790 5787
5681 5687 5696 5706 5712 5719 5729 5744 5746 5748 5746 5762 5763 5765 5772 5780 5764 5773 5785 5768 5766 5762 5767 5764 5758 5767 5765 5764 5761 5761 5759 5756 5757 5762 5769 5762 5755 5763 5770 5770 5775 5776 5779 5786 5791
5676 5684 5695 5706 5713 5721 5735 5741 5750 5751 5746 5755 5765 5765 5770 5774 5766 5764 5776 5772 5765 5758 5763 5764 5763 5765 5762 5760 5756 5758 5761 5754 5757 5756 5761 5760 5752 5755 5765 5770 5774 5777 5778 5780 5782
5674 5682 5692 5704 5711 5730 5735 5742 5748 5751 5743 5741 5754 5765 5767 5773 5757 5777 5782 5773 5763 5757 5761 5763 5768 5763 5764 5758 5766 5754 5763 5757 5753 5748 5750 5755 5739 5751 5755 5761 5765 5769 5769 5770 5771
5668 5681 5689 5694 5713 5728 5735 5742 5746 5743 5715 5750 5754 5778 5770 5760 5763 5759 5779 5770 5755 5757 5760 5749 5758 5763 5761 5756 5760 5750 5761 5755 5753 5749 5745 5748 5751 5738 5755 5748 5752 5758 5760 5760 5760
5669 5678 5686 5697 5710 5728 5731 5737 5738 5722 5706 5737 5755 5750 5750 5759 5759 5762 5762 5770 5768 5757 5761 5758 5769 5767 5762 5763 5760 5760 5754 5754 5754 5753 5737 5738 5742 5742 5753 5740 5747 5752 5753 5750 5749
5668 5678 5684 5698 5716 5723 5730 5733 5715 5711 5739 5732 5740 5750 5754 5748 5751 5754 5746 5744 5745 5730 5734 5748 5753 5764 5766 5756 5761 5755 5746 5741 5735 5738 5732 5738 5733 5739 5749 5748 5745 5743 5747 5746 5742
5669 5682 5693 5704 5711 5716 5725 5718 5696 5725 5734 5745 5747 5749 5740 5750 5751 5749 5745 5740 5749 5748 5740 5735 5721 5748 5758 5750 5745 5747 5742 5736 5707 5721 5737 5738 5728 5737 5751 5751 5750 5747 5743 5740 5737
5670 5689 5696 5706 5707 5712 5714 5700 5717 5727 5736 5735 5738 5734 5735 5744 5746 5743 5743 5746 5751 5750 5731 5729 5727 5749 5749 5753 5748 5741 5735 5745 5727 5733 5725 5742 5736 5744 5748 5746 5746 5745 5740 5736 5732
5664 5682 5696 5699 5703 5708 5705 5698 5713 5724 5729 5731 5726 5738 5730 5738 5734 5737 5737 5742 5739 5747 5749 5741 5720 5741 5741 5746 5746 5739 5741 5720 5734 5703 5703 5731 5721 5737 5733 5739 5744 5741 5738 5732 5732
5660 5676 5688 5694 5699 5700 5693 5704 5711 5724 5724 5722 5724 5726 5738 5732 5739 5736 5736 5732 5738 5738 5746 5742 5729 5724 5732 5732 5728 5731 5728 5723 5721 5718 5705 5709 5732 5752 5742 5744 5743 5743 5739 5734 5730
5655 5667 5683 5688 5684 5695 5695 5699 5695 5713 5723 5722 5725 5728 5729 5730 5730 5732 5727 5733 5730 5738 5727 5737 5729 5718 5724 5726 5726 5727 5726 5724 5706 5704 5715 5703 5715 5746 5738 5739 5737 5740 5738 5734 5724
5648 5662 5678 5681 5674 5683 5687 5693 5701 5705 5709 5715 5716 5723 5726 5721 5711 5722 5721 5719 5724 5727 5725 5725 5718 5703 5702 5714 5718 5716 5719 5716 5711 5705 5698 5698 5719 5739 5733 5729 5729 5726 5730 5728 5720
5637 5652 5664 5671 5675 5679 5679 5685 5687 5699 5701 5705 5711 5718 5715 5713 5719 5711 5711 5710 5715 5716 5698 5710 5711 5709 5706 5712 5719 5705 5709 5710 5704 5691 5704 5712 5715 5721 5721 5719 5724 5721 5723 5720 5712
5629 5642 5642 5657 5664 5670 5673 5677 5681 5683 5694 5698 5698 5706 5707 5698 5707 5706 5710 5703 5705 5694 5704 5706 5695 5702 5708 5705 5705 5705 5707 5708 5697 5700 5688 5706 5708 5721 5719 5716 5716 5713 5713 5714 5706
5619 5630 5635 5644 5647 5658 5651 5668 5672 5672 5678 5684 5688 5692 5697 5694 5701 5696 5702 5702 5701 5700 5698 5696 5687 5690 5687 5699 5694 5690 5703 5703 5703 5701 5699 5699 5698 5716 5716 5707 5704 5704 5703 5703 5698
5607 5614 5623 5621 5641 5650 5659 5663 5662 5664 5667 5673 5678 5682 5683 5678 5686 5689 5691 5691 5692 5689 5685 5683 5685 5673 5672 5690 5679 5672 5698 5700 5701 5706 5698 5685 5701 5705 5697 5696 5696 5693 5692 5692 5687